Find Starlink 11442

NORAD ID: 62885 Int'l Des: 2025-024 Owner: SPXS Country: US Constellation: starlink operational
別名: STARLINK-11442 [DTC] celestrak
LEOCIRCULAR

現在のビュー

3D地球を読み込み中...

About Starlink 11442

Starlink 11442 (NORAD 62885) is a starlink constellation satellite (v2 mini d2c) launched Feb 4, 2025 by SPXS of US. It operates in LEO, CIRCULAR orbit with a mass of 960.00 kg.

次回通過

Passes for default location (London). Set your location on the main map for personalized predictions.

高度履歴

Loading altitude history...

軌道要素

1 62885U 25024G 26263.90792823 .00135291 00000-0 10374-2 0 9999
2 62885 42.9998 84.3616 0001061 281.7291 78.3458 15.70918326 94176
Epoch: Sep 20, 2026 • Age: 37 hours

現在のステータス

高度 354.8 km
遠地点 / 近地点 N/A
速度 7.70 km/s
衛星直下点 3.09°N, 83.08°E
打ち上げ日 Feb 4, 2025
運用期間 1.6 years
タイプ internet

技術仕様

分類 Payload
質量 960.00 kg
乾燥質量 910.00 kg
長さ 0.30 m
スパン 29.00 m
形状 ? Box + pan
製造者 SPXS
バスタイプ Starlink V2MD
フェーズステータス In Orbit
所有者/国 SPXS/US

Most Searched